Home > Weather > Abilene > Past weeks

Flag for USA Past Weather in Abilene, Texas, USA — Yesterday and Last 2 Weeks

Now
87 °F

Sunny.


Feels Like: 91 °F
Forecast: 74 / 92 °F
Wind: No wind

Location: Abilene Regional Airport

Current Time: Jul 27, 2016 at 10:26:51 AM

Latest Report: Jul 27, 2016 at 9:52 AM


Visibility: 10 mi

Pressure: 29.93 "Hg (28.22 "Hg at 524m altitude)

Humidity: 53%

Dew Point: 68 °F

Location of AbileneLocation

Past Weather in Abilene — Graph

°F

Abilene Temperature Yesterday

Maximum temperature yesterday: 96 °F (at 3:52 PM)
Minimum temperature yesterday: 72 °F (at 6:52 AM)
Average temperature yesterday: 85 °F

High & Low Weather Summary for the Past Weeks

 TemperatureHumidityPressure
High101 °F (Jul 13, 5:52 PM)84% (Jul 26, 6:52 AM)30.14 "Hg (Jul 26, 6:52 AM)
Low69 °F (Jul 16, 6:52 AM)22% (Jul 13, 6:52 PM)29.73 "Hg (Jul 12, 5:52 PM)
Average87 °F50%29.94 "Hg
* Reported Jul 12 8:52 AM — Jul 27 8:52 AM, Abilene, Weather by CustomWeather, © 2016

Note: Actual official high and low records may vary slightly from our data, if they occured in-between our weather recording intervals... More about our weather records

Advertising

Abilene Weather History for the Previous 24 Hours

Scroll right to see more
 ConditionsComfort  
Time TempWeatherWind HumidityBarometerVisibility
8:52 AM
Wed, Jul 27
82 °FSunny.3 mph65%29.93 "Hg10 mi
7:52 AM77 °FSunny.5 mph77%29.92 "Hg10 mi
6:52 AM75 °FPassing clouds.3 mph79%29.92 "Hg10 mi
5:52 AM76 °FClear.3 mph77%29.89 "Hg10 mi
4:52 AM77 °FClear.5 mph74%29.87 "Hg10 mi
3:52 AM79 °FClear.7 mph69%29.87 "Hg10 mi
2:52 AM79 °FClear.8 mph69%29.88 "Hg10 mi
1:52 AM80 °FClear.8 mph64%29.88 "Hg10 mi
12:52 AM81 °FClear.9 mph60%29.89 "Hg10 mi
11:52 PM
Tue, Jul 26
81 °FClear.7 mph60%29.89 "Hg10 mi
10:52 PM83 °FClear.8 mph55%29.88 "Hg10 mi
9:52 PM86 °FClear.8 mph49%29.87 "Hg10 mi
8:52 PM89 °FSunny.10 mph43%29.85 "Hg10 mi
7:52 PM93 °FSunny.12 mph38%29.83 "Hg10 mi
6:52 PM93 °FSunny.9 mph37%29.83 "Hg10 mi
5:52 PM95 °FScattered clouds.9 mph35%29.83 "Hg10 mi
4:52 PM95 °FPassing clouds.8 mph36%29.82 "Hg10 mi
3:52 PM96 °FPassing clouds.10 mph35%29.84 "Hg10 mi
2:52 PM95 °FPassing clouds.12 mph37%29.88 "Hg10 mi
1:52 PM93 °FSunny.5 mph40%29.91 "Hg10 mi
12:52 PM92 °FSunny.7 mph41%29.92 "Hg10 mi
11:52 AM89 °FSunny.No wind46%29.93 "Hg10 mi
10:52 AM88 °FSunny.6 mph50%29.94 "Hg10 mi
Weather by CustomWeather, © 2016

See weather overviewHow to use our weather pages